Regional Weather Roundup
Issued by NWS

Home | Current Version | Previous Version | Text Only | Print | Product List | Glossary Off
Versions: 1 2 3 4 5 6 7 8 9 10 11 12 13 14 15 16 17 18 19 20 21 22 23 24 25 26 27 28 29 30 31 32 33 34 35 36 37 38 39 40 41 42 43 44 45 46 47 48 49 50

000
ASUS43 KMPX 031601
RWRMN
WEATHER ROUNDUP FOR MINNESOTA
NATIONAL WEATHER SERVICE TWIN CITIES/CHANHASSEN MN
1000 AM CST SAT DEC 03 2016


NOTE: "FAIR" INDICATES FEW OR NO CLOUDS BELOW 12,000 FEET WITH NO
SIGNIFICANT WEATHER AND/OR OBSTRUCTIONS TO VISIBILITY. N/A MEANS
CURRENT SKY AND/OR WEATHER CONDITIONS ARE NOT AVAILABLE.

MNZ060>063-068>070-031700-
   Twin Cities Metro

CITY           SKY/WX    TMP DP  RH WIND       PRES   REMARKS
TWIN CITIES    FLURRIES  29  19  66 SW5       30.30S WCI  24
ST PAUL        CLOUDY    29  22  75 SW8       30.31S WCI  21
CRYSTAL        CLOUDY    29  19  66 CALM      30.28F
LAKEVILLE      CLOUDY    27  21  80 W5        30.29F WCI  21
EDEN PRAIRIE   CLOUDY    30  20  66 S3        30.28F
SOUTH ST PAUL  CLOUDY    30  21  69 W6        30.30S WCI  24
LAKE ELMO      CLOUDY    30  25  80 SW3       30.30S
$$
MNZ001>005-007-008-013>017-022>024-027-028-031700-
   Northwest Minnesota

CITY           SKY/WX    TMP DP  RH WIND       PRES   REMARKS
BEMIDJI        CLOUDY    24  19  81 S10       30.19F WCI  13
HALLOCK        CLOUDY    28  25  86 S21       30.14S WCI  15
ROSEAU         CLOUDY    27  21  80 S13       30.16F WCI  16
WARROAD        CLOUDY    27  21  80 S10       30.18S WCI  17
THIEF RVR FALL CLOUDY    24  20  84 S15G22    30.19S WCI  11
CROOKSTON      CLOUDY    27  21  80 S13       30.19S WCI  16
FOSSTON        CLOUDY    23  18  80 S14       30.20R WCI  11
DETROIT LAKES  CLOUDY    27  21  80 S10       30.20F WCI  17
MOORHEAD       CLOUDY    27  19  74 S15       30.20F WCI  15
PARK RAPIDS    CLOUDY    24  15  68 S8        30.21S WCI  15
$$
MNZ006-009>011-018-025>026-031700-
   North Central Minnesota

CITY           SKY/WX    TMP DP  RH WIND       PRES   REMARKS
BAUDETTE       CLOUDY    26  21  81 S7        30.18F WCI  18
FLAG ISLAND    FLURRIES  28  23  80 S14       30.15F WCI  17
INTL FALLS     CLOUDY    25  19  78 S3        30.22S
WASKISH        CLOUDY    25  19  80 S7        30.20S WCI  17
BIG FORK       CLOUDY    27  19  74 S8        30.22S WCI  18
LONGVILLE      CLOUDY    25  18  74 S7        30.23S WCI  17
GRAND RAPIDS   CLOUDY    26  21  81 S6        30.25S WCI  19
CRANE LAKE     CLOUDY    23  21  93 CALM      30.26S
ORR            CLOUDY    25  19  80 CALM      30.20S
COOK           CLOUDY    25  21  86 S3        30.23S
$$
MNZ012-019>021-037-031700-
   Northeast Minnesota

CITY           SKY/WX    TMP DP  RH WIND       PRES   REMARKS
DULUTH         FLURRIES  27  22  81 NW5       30.23S WCI  22
ELY            CLOUDY    23  23 100 W3        30.24S FOG
HIBBING        CLOUDY    24  20  84 S3        30.23S
EVELETH        MIX PCPN  25  20  81 CALM      30.25S
DULUTH HARBOR  CLOUDY    30  25  80 CALM      30.29S
TWO HARBORS    CLOUDY    30  27  86 CALM      30.24S
SILVER BAY     CLOUDY    28  25  86 NW3       30.23F
GRAND MARAIS     N/A     33  24  69 CALM      30.26F
G MARAIS ARPRT CLOUDY    25  19  80 CALM      30.21S
$$
MNZ029>031-032-039>041-046>048-054>057-064-031700-
   West Central Minnesota

CITY           SKY/WX    TMP DP  RH WIND       PRES   REMARKS
FERGUS FALLS   CLOUDY    27  19  74 S12       30.25F WCI  16
WHEATON        SUNNY    N/A N/A N/A SE14      30.21F
MORRIS         SUNNY     28  21  74 SE10      30.21S WCI  19
ALEXANDRIA     CLOUDY    25  19  78 S7        30.22F WCI  17
ELBOW LAKE     CLOUDY    26  20  76 SE10      30.21F WCI  16
WADENA         CLOUDY    23  19  86 S8        30.22S WCI  14
GLENWOOD       SUNNY     27  19  74 S9        30.23S WCI  17
APPLETON       CLOUDY    28  19  69 SE7       30.22F WCI  21
BENSON         MOSUNNY   28  18  64 S8        30.23F WCI  20
ORTONVILLE     PTSUNNY   28  21  74 SE7       30.19F WCI  21
MADISON        SUNNY     30  25  80 SE10      30.22R WCI  21
WILLMAR        FAIR      28  21  74 CALM      30.26F
$$
MNZ033>034-036-042>043-049>051-058-059-031700-
   Central Minnesota

CITY           SKY/WX    TMP DP  RH WIND       PRES   REMARKS
ST CLOUD       CLOUDY    27  19  72 S9        30.27F WCI  18
PAYNESVILLE    CLOUDY    26  19  73 S5        30.26F WCI  21
AITKIN         CLOUDY    28  19  69 SW5       30.23F WCI  23
PINE RIVER     CLOUDY    23  18  80 S8        30.26F WCI  14
BRAINERD       CLOUDY    26  18  71 S6        30.25S WCI  19
STAPLES        CLOUDY    25  18  74 S12       30.24S WCI  14
LONG PRAIRIE   CLOUDY    27  19  74 S7        30.24F WCI  19
LITTLE FALLS   CLOUDY    27  19  74 SW7       30.26S WCI  19
LITCHFIELD     MIX PCPN  28  21  74 CALM      30.27F
BUFFALO        CLOUDY    28  19  71 S3        30.29F
MAPLE LAKE     CLOUDY    29  22  76 S5        30.28F WCI  23
$$
MNZ037-044-045-052-053-031700-
   East Central Minnesota

CITY           SKY/WX    TMP DP  RH WIND       PRES   REMARKS
PRINCETON      CLOUDY    28  23  80 S3        30.28S
MORA           CLOUDY    30  25  80 SW5       30.28F WCI  25
CAMBRIDGE      FLURRIES  30  21  69 SW5       30.27S WCI  25
RUSH CITY      CLOUDY    28  25  86 SW5       30.28S WCI  23
MOOSE LAKE     CLOUDY    28  25  86 CALM      30.24S
HINCKLEY       CLOUDY    30  27  86 SW3       30.27F
CLOQUET        CLOUDY    27  23  86 W3        30.25R
MCGREGOR       CLOUDY    28  23  80 CALM      30.25S
$$
MNZ071>073-080-081-089-090-097-098-031700-
   Southwest Minnesota

CITY           SKY/WX    TMP DP  RH WIND       PRES   REMARKS
MONTEVIDEO     CLOUDY    28  23  80 S9        30.25S WCI  20
GRANITE FALLS  CLOUDY    30  23  75 E7        30.26S WCI  23
CANBY          SUNNY     30  24  78 E7        30.22F WCI  23
MARSHALL       SUNNY     29  22  75 SE14      30.23S WCI  18
REDWOOD FALLS  CLOUDY    29  19  66 SE5       30.27R WCI  24
OLIVIA         CLOUDY    30  21  69 E3        30.25F
PIPESTONE      SUNNY     30  27  86 S10       30.18S WCI  21
WINDOM         SUNNY     30  23  74 CALM      30.24S
WORTHINGTON    SUNNY     30  27  88 SE10      30.22F WCI  21
JACKSON        SUNNY     30  23  74 SE7       30.25S WCI  23
TRACY          SUNNY     30  24  78 SE9       30.23S WCI  21
SLAYTON        SUNNY     28  25  89 SE12      30.22S WCI  17
$$
MNZ065>067-074>077-082>085-091>093-031700-
   South Central Minnesota

CITY           SKY/WX    TMP DP  RH WIND       PRES   REMARKS
MANKATO        PTSUNNY   29  20  69 E3        30.29F
NEW ULM        CLOUDY    28  19  69 CALM      30.27S
ST JAMES       CLOUDY    28  21  74 E6        30.28F WCI  22
FAIRMONT       PTSUNNY   30  22  72 E6        30.27F WCI  24
GLENCOE        CLOUDY    30  23  75 SW3       30.28S
FARIBAULT      CLOUDY    28  21  74 SW3       30.29F
OWATONNA       CLOUDY    28  19  69 CALM      30.29S
WASECA         CLOUDY    30  23  74 W6        30.30R WCI  24
ALBERT LEA     CLOUDY    32  25  74 NW6       30.27F WCI  26
$$
MNZ078>079-086>088-094>096-031700-
   Southeast Minnesota

CITY           SKY/WX    TMP DP  RH WIND       PRES   REMARKS
ROCHESTER      CLOUDY    30  21  69 NW9       30.28S WCI  22
RED WING       CLOUDY    30  18  59 W5        30.30S WCI  25
STANTON        CLOUDY    31  21  67 W7        30.29S WCI  24
DODGE CENTER   CLOUDY    27  23  86 SW6       30.28S WCI  20
WINONA         CLOUDY    32  23  69 CALM      30.31F
AUSTIN         CLOUDY    28  19  69 NW9       30.27F WCI  20
PRESTON        CLOUDY    29  20  69 W10       30.29S WCI  20
$$
ABBREVIATIONS USED IN REMARKS
   TC - TEMPERATURES IN CELSIUS
  WCI - WIND CHILL INDEX
   HX - HEAT INDEX
  VSB - VISIBILITY
$$



USA.gov is the U.S. government's official web portal to all federal, state and local government web resources and services.